CWCA

Cartwright Airport

Cartwright, Canada
Issued Wind Visibility Ceiling Temperature Dew Point Humidity Barometer
Sep-21
10:00 UTC
300°
8 KTS
Gust 19 KTS
15 miles Overcast
2,000' AGL
C
46° F
C
43° F
87% 29.88" Hg
1012 hPa
MVFR
Sep-21
09:17 UTC
290°
8 KTS
15 miles Overcast
2,000' AGL
C
46° F
C
43° F
87% 29.89" Hg
1012.2 hPa
MVFR
Sep-21
09:00 UTC
300°
8 KTS
Gust 15 KTS
15 miles Overcast
2,000' AGL
C
46° F
C
43° F
87% 29.88" Hg
1012.1 hPa
MVFR
Sep-21
08:41 UTC
300°
9 KTS
Gust 16 KTS
15 miles Overcast
2,000' AGL
C
46° F
C
43° F
87% 29.89" Hg
1012.2 hPa
MVFR
Sep-21
08:00 UTC
300°
10 KTS
Gust 15 KTS
15 miles Overcast
2,000' AGL
C
46° F
C
43° F
87% 29.88" Hg
1011.9 hPa
MVFR
Sep-21
07:00 UTC
300°
12 KTS
Gust 18 KTS
15 miles Overcast
2,000' AGL
C
46° F
C
43° F
87% 29.87" Hg
1011.7 hPa
MVFR
Sep-21
06:13 UTC
300°
11 KTS
Gust 18 KTS
15 miles   C
46° F
C
43° F
87% 29.87" Hg
1011.6 hPa
VFR
Sep-21
06:00 UTC
300°
13 KTS
Gust 19 KTS
15 miles Broken
2,000' AGL
C
46° F
C
43° F
87% 29.87" Hg
1011.6 hPa
MVFR
Sep-21
05:00 UTC
300°
9 KTS
15 miles   C
46° F
C
43° F
87% 29.87" Hg
1011.8 hPa
VFR
Sep-21
04:00 UTC
270°
7 KTS
15 miles Broken
2,000' AGL
C
46° F
C
45° F
93% 29.87" Hg
1011.7 hPa
MVFR
Sep-21
03:00 UTC
210°
4 KTS
15 miles Broken
2,000' AGL
C
46° F
C
45° F
93% 29.88" Hg
1011.9 hPa
MVFR
Sep-21
02:00 UTC
150°
3 KTS
15 miles Broken
2,000' AGL
C
46° F
C
45° F
93% 29.89" Hg
1012.3 hPa
MVFR
Sep-21
01:00 UTC
Varies @2 KTS 15 miles Overcast
2,000' AGL
C
46° F
C
45° F
93% 29.9" Hg
1012.7 hPa
MVFR
Sep-21
00:00 UTC
200°
2 KTS
15 miles Overcast
2,000' AGL
C
48° F
C
45° F
87% 29.9" Hg
1012.7 hPa
MVFR
Sep-20
23:10 UTC
080°
5 KTS
15 miles Overcast
2,000' AGL
C
48° F
C
45° F
87% 29.91" Hg
1012.9 hPa
MVFR
Sep-20
22:44 UTC
090°
3 KTS
15 miles Broken
2,000' AGL
C
48° F
C
45° F
87% 29.92" Hg
1013.2 hPa
MVFR
Sep-20
22:18 UTC
060°
6 KTS
15 miles Overcast
2,000' AGL
10° C
50° F
C
45° F
82% 29.92" Hg
1013.2 hPa
MVFR
Sep-20
22:00 UTC
040°
5 KTS
15 miles Overcast
2,000' AGL
11° C
52° F
C
46° F
82% 29.91" Hg
1013 hPa
MVFR
Sep-20
21:24 UTC
15 miles Broken
2,500' AGL
12° C
54° F
C
46° F
77% 29.9" Hg
1012.6 hPa
MVFR
Sep-20
21:00 UTC
090°
4 KTS
15 miles Broken
2,500' AGL
12° C
54° F
C
46° F
77% 29.9" Hg
1012.6 hPa
MVFR
Sep-20
20:06 UTC
090°
4 KTS
15 miles Broken
2,500' AGL
12° C
54° F
C
48° F
82% 29.89" Hg
1012.4 hPa
MVFR
Sep-20
19:00 UTC
010°
7 KTS
15 miles Broken
2,000' AGL
12° C
54° F
C
46° F
77% 29.88" Hg
1012 hPa
MVFR
Sep-20
18:00 UTC
350°
10 KTS
Gust 16 KTS
15 miles Broken
2,000' AGL
14° C
57° F
C
46° F
67% 29.87" Hg
1011.6 hPa
MVFR
Sep-20
17:00 UTC
210°
6 KTS
15 miles   19° C
66° F
11° C
52° F
60% 29.87" Hg
1011.7 hPa
VFR
Sep-20
16:00 UTC
230°
8 KTS
15 miles   17° C
63° F
10° C
50° F
64% 29.89" Hg
1012.4 hPa
VFR
Sep-20
15:00 UTC
210°
6 KTS
15 miles   17° C
63° F
11° C
52° F
68% 29.92" Hg
1013.4 hPa
VFR
Sep-20
14:00 UTC
230°
6 KTS
15 miles   15° C
59° F
11° C
52° F
77% 29.94" Hg
1013.9 hPa
VFR
Sep-20
13:00 UTC
200°
6 KTS
15 miles   13° C
55° F
11° C
52° F
88% 29.94" Hg
1014 hPa
VFR
Sep-20
12:00 UTC
220°
4 KTS
15 miles   13° C
55° F
12° C
54° F
94% 29.95" Hg
1014.3 hPa
VFR
Sep-20
11:00 UTC
220°
5 KTS
12 miles Broken
7,000' AGL
11° C
52° F
11° C
52° F
100% 29.95" Hg
1014.5 hPa
VFR